P/2007 V1 (Larson)
Epoch 2007 Dec. 6.0 TT = JDT 2454440.5  
T 2007 Dec. 8.52164 TT                                  Nakano
q   2.6766812            (2000.0)            P               Q
n   0.08901885     Peri.   51.45490     +0.50737713     -0.86131170
a   4.9676164      Node     8.18664     +0.72088068     +0.40729782
e   0.4611739      Incl.   10.78953     +0.47212233     +0.30372792
P  11.07 (+/- 0.02 day)
From 183 observations 2007 Sept. 10-2008 Mar. 3, mean residual 0".64.
Residuals in seconds of arc 
2007/                     071110 850 (5.8-  0.2+)   071202 704  0.9-  0.2+  
070910 703  0.1+  0.0     071110 213  0.2+  0.7+    071202 704  0.7-  0.5+  
070910 703  0.8-  0.3-    071110 213  0.1-  0.9+    071202 J70 (0.2-  3.2-) 
070910 703  0.8+  0.2-    071110 213  0.1-  0.8+    071202 J70 (2.6+  0.7-) 
070910 703  1.0-  0.3-    071110 J47 (3.2+  1.6-)   071202 J70 (3.4+  1.4-) 
071010 699  1.2+  0.0     071110 J47  0.6+  0.4+    071202 J70 (3.9+  1.3-) 
071010 699  0.2-  0.0     071111 673  0.8+  0.7+    071203 704  0.5-  0.2-  
071010 699  0.3-  0.4-    071111 673  0.4+  0.9+    071203 704  0.5-  1.2-  
071010 699  0.3+  0.9-    071111 673  0.7+  1.0+    071203 704  0.2+  0.8+  
071021 703  0.6-  0.6-    071111 673  0.7+  0.9+    071203 704  0.2+  0.2+  
071021 703  0.3-  0.4+    071111 850  0.2+  0.1-    071203 704  0.7-  0.7+  
071021 703  0.3+  1.0-    071111 850  0.1-  0.3-    071206 J47  0.2+  1.4+  
071021 703  0.1+  0.3+    071111 850  0.2-  0.3+    071206 J47  0.1+  1.2+  
071108 704  0.3+  0.5+    071111 349  0.6-  0.3-    071206 J47 (0.2+  2.4+) 
071108 704  0.1-  0.4+    071111 349  0.8-  0.3-    071207 J46  0.9+  0.2+  
071108 704  0.0   0.9+    071111 349  0.7-  0.1+    071207 J46  0.4-  0.7-  
071108 704  0.4+  0.8+    071111 B28 (2.6+  1.2-)   071207 J46  0.9-  0.4-  
071108 704  0.1+  0.3+    071111 B28  0.2-  0.8-    071209 213  0.2+  0.0   
071108 703  0.9-  1.5-    071111 J51  0.6+  0.7+    071209 213  0.1+  0.1+  
071108 703  1.9-  1.0-    071111 J51  0.4+  0.3+    071209 213  0.1-  0.0   
071108 703 (2.6-  2.1-)   071112 355  0.0   0.4+    071211 349  0.7+  0.2-  
071108 703  1.3-  1.1-    071112 355  0.8-  0.1+    071211 349  0.4+  0.5-  
071108 703  1.3-  0.5+    071112 355  0.6+  0.7-    071214 J70 (2.6-  0.5-) 
071108 703  0.6-  0.1-    071113 204  0.5+  0.4+    071214 J70 (2.8-  0.1+) 
071108 703  0.0   0.7+    071114 355  1.3-  0.4-    071215 D88  0.1+  0.9-  
071108 703  0.1+  0.8+    071114 355  1.0-  0.5-    071215 D88  0.9+  0.5-  
071108 J95  0.1-  0.3-    071114 355  0.3-  0.1-    071215 D88  0.9+  0.0   
071108 J87  0.6+  0.4+    071115 213  0.0   0.3+    071216 J47 (0.0   2.4-) 
071108 J87  0.7+  0.5+    071115 213  0.1+  0.3+    071216 J47 (0.3+  2.2-) 
071108 J87  0.8+  0.6+    071115 213  0.1+  0.2+    071216 J47  0.2+  0.9-  
071109 J95  0.7+  0.9+    071116 704  1.1-  1.2-    071217 J47  0.2-  0.3-  
071109 704  0.9+  0.8+    071116 704  0.5-  0.2+    071217 J47  0.8+  0.5+  
071109 701  0.6-  1.2-    071116 704  0.8-  0.1+    071217 J47  0.9+  0.2+  
071109 704  0.0   0.6+    071116 704  0.5-  0.1-    071218 213  0.2+  0.6-  
071109 704  0.0   0.6+    071116 473  0.6-  0.4-    071218 213  0.3+  1.0-  
071109 701  0.3-  0.7-    071116 473  1.0-  0.5-    071228 204  0.0   0.1+  
071109 704  0.4+  1.4+    071116 473  1.4-  0.7-    071228 204  0.4+  1.0-  
071109 711  0.2+  0.6+    071116 147  0.6+  0.0     071230 170  0.5-  0.7+  
071109 711  0.3+  0.2+    071116 147  0.5+  0.4+    071230 170  0.3+  0.5+  
071109 701  0.6+  0.1-    071117 349  0.0   0.0     071230 170  0.4+  0.5-  
071109 704  0.9-  0.3+    071117 349  0.1-  0.0     071230 170  0.4+  0.3-  
071109 711  0.6+  0.7+    071118 130  0.4-  0.2-    071231 349  0.6+  0.0   
071109 701  0.4+  0.1-    071118 130  0.1-  0.4+    2008/                   
071109 G96  0.6+  0.6+    071118 130  0.5-  0.7+    080101 349  0.8+  0.5-  
071109 734  0.8+  0.3+    071119 585  1.4+  1.5+    080101 349  1.0+  0.3-  
071109 H06  0.8-  1.3-    071119 585  1.0+  1.3+    080104 585  0.6-  0.3+  
071109 734  0.6+  0.3+    071119 585  1.4+  1.1+    080104 585  0.8-  0.3+  
071109 G96  1.0+  0.4+    071119 585  0.5+  0.5+    080104 585  0.4-  0.3-  
071109 734  0.6+  0.2+    071119 585  1.5+  1.7-    080104 585  1.0-  0.4-  
071109 G96  0.6+  0.5+    071120 G96  0.3-  0.7-    080106 204  0.1+  0.1+  
071109 H06  1.0-  0.1-    071120 G96  0.0   0.5-    080107 204  0.0   0.3+  
071109 G96  0.7+  0.6+    071120 G96  0.1-  0.8-    080108 204  0.6+  0.6-  
071109 104  0.0   1.0-    071120 G96  0.3-  0.6-    080125 246  1.9-  0.4+  
071109 104  0.3-  0.9-    071127 J47  0.2-  0.1-    080125 246  0.5-  0.2+  
071109 104  0.1+  0.8-    071127 J47  0.3+  0.2-    080125 246  1.9-  0.7-  
071109 104  0.5+  0.7-    071127 J47  0.7+  0.4-    080125 246  1.3-  0.2-  
071109 A10 (4.2+  1.0-)   071128 215  0.2+  0.7+    080125 246  0.8-  0.3-  
071109 J47  0.3-  1.1-    071128 215  0.0   0.1+    080126 A77  1.1+  0.8+  
071109 J47  0.0   0.7-    071128 215  0.5-  0.6-    080126 A77  0.2-  0.3+  
071110 J46  0.1+  0.7-    071129 104  0.1+  0.5+    080126 A77  0.1+  0.6+  
071110 J47  0.5-  0.6-    071129 104  0.5+  0.3+    080205 A77  0.8+  0.1-  
071110 J46  0.3+  0.0     071129 104  0.4+  0.3+    080205 A77  0.6+  0.1-  
071110 473  0.3-  0.6-    071130 213  0.4+  0.4-    080303 G96  0.4+  0.9+  
071110 473  0.4-  1.1-    071130 213  0.2+  0.3-    080303 G96  0.0   0.5+  
071110 473  0.3-  1.4-    071130 213  0.2+  0.1-    080303 G96  0.2-  0.5-  
071110 850 (2.3+  1.1-)   071202 704  1.5-  0.7+    080303 G96  0.4+  1.3-  
071110 850 (1.3+  2.4+)   071202 704  0.3-  0.6+                            
071110 850 (0.2+  3.0+)   071202 704  0.6-  1.0+                            

NAKANO
         **** Don't distribute anyone except personal use only ****
                (C) Copyright 2009 OAA/ComputingSection
write mail from CFAD0::NAKANO on 2009-01-06 06:55:26(JST).
 



    P/2007 V1 (Larson)

Epoch 2007 Dec. 6.0 TT = JDT 2454440.5  

T 2007 Dec. 8.51213 TT                                  Nakano

q   2.6766955            (2000.0)            P               Q

n   0.08901835     Peri.   51.45196     +0.50741663     -0.86128839

a   4.9676350      Node     8.18697     +0.72086173     +0.40732988

e   0.4611731      Incl.   10.78961     +0.47210881     +0.30375101

P  11.07 (+/- 0.02 day)

From 179 observations 2007 Sept. 10-2008 Feb. 5, mean residual 0".64.

NAKANO

         **** Don't distribute anyone except personal use only ****

                (C) Copyright 2008 OAA/ComputingSection

write mail from CFAD0::NAKANO on 2008-02-15 03:48:21(JST).

 

    P/2007 V1 (Larson)

Epoch 2007 Dec. 6.0 TT = JDT 2454440.5  

T 2007 Dec. 8.59653 TT                                  Nakano

q   2.6765413            (2000.0)            P               Q

n   0.08903352     Peri.   51.47677     +0.50706622     -0.86149492

a   4.9670708      Node     8.18543     +0.72102959     +0.40704211

e   0.4611429      Incl.   10.78909     +0.47222895     +0.30355101

P  11.07 (+/- 0.06 day)

From 97 observations 2007 Sept. 10-Nov. 17, mean residual 0".61.



NAKANO

         **** Don't distribute anyone except personal use only ****

                (C) Copyright 2007 OAA/ComputingSection

write mail from CFAD0::NAKANO on 2007-11-30 09:05:11(JST).

 



◎P/2007 V1の軌道と予報位置



 上尾の門田健一氏から11月11日の観測が報告されました.氏の CCD全光度は

18.0等でした.



    P/2007 V1 (Larson)

T 2007 Dec. 8.60396 TT                                  Nakano

q   2.6766327            (2000.0)            P               Q

n   0.08902800     Peri.   51.47502     +0.50704005     -0.86150991

a   4.9672761      Node     8.18899     +0.72103897     +0.40700932

e   0.4611468      Incl.   10.79002     +0.47224273     +0.30355246

P  11.07 (+/- 0.09 day)

From 44 observations 2007 Sept. 10-Nov. 11.

 

Date/        TT  R.A.(2000) Decl.     Delta   r     Daily motion  Mag.  Moon Age

              h    h  m       。  ,                      ,  / PA 。  m1      。

2007 Nov. 10 18  03 12.27  +30 04.7   1.710  2.684    10.3 / 277  18.0  173  .01

          11 18  03 11.48  +30 05.9   1.709  2.683    10.3 / 276  18.0  164  .03

          12 18  03 10.69  +30 06.9   1.708  2.683    10.3 / 275  17.9  153  .07

          13 18  03 09.89  +30 07.8   1.707  2.683    10.3 / 274  17.9  141  .13

          14 18  03 09.10  +30 08.6   1.707  2.682    10.3 / 273  17.9  128  .20

          15 18  03 08.31  +30 09.2   1.706  2.682    10.3 / 273  17.9  116  .28

          16 18  03 07.52  +30 09.7   1.706  2.681    10.2 / 272  17.9  103  .38

          17 18  03 06.73  +30 10.0   1.707  2.681    10.1 / 271  17.9   90  .48

          18 18  03 05.95  +30 10.2   1.707  2.680    10.1 / 271  17.9   77  .59

          19 18  03 05.18  +30 10.3   1.708  2.680    10.0 / 270  17.9   63  .69

          20 18  03 04.41  +30 10.3   1.709  2.680     9.9 / 269  17.9   49  .79

          21 18  03 03.65  +30 10.2   1.711  2.679     9.7 / 269  17.9   34  .88

          22 18  03 02.90  +30 09.9   1.712  2.679     9.6 / 268  17.9   20  .95

          23 18  03 02.16  +30 09.6   1.714  2.679     9.5 / 267  17.9    8  .99

          24 18  03 01.43  +30 09.1   1.716  2.678     9.3 / 267  18.0   14 1.00

          25 18  03 00.72  +30 08.5   1.719  2.678     9.1 / 266  18.0   29  .98

          26 18  03 00.01  +30 07.9   1.721  2.678     9.0 / 265  18.0   43  .93

          27 18  02 59.32  +30 07.1   1.724  2.678     8.8 / 265  18.0   58  .86

          28 18  02 58.65  +30 06.3   1.728  2.678     8.6 / 264  18.0   72  .78

          29 18  02 58.00  +30 05.4   1.731  2.677     8.4 / 263  18.0   85  .68

          30 18  02 57.36  +30 04.4   1.735  2.677     8.1 / 262  18.0   98  .58

     Dec.  1 18  02 56.74  +30 03.3   1.739  2.677     7.9 / 262  18.0  111  .48

           2 18  02 56.13  +30 02.2   1.743  2.677     7.7 / 261  18.0  123  .38

           3 18  02 55.55  +30 00.9   1.747  2.677     7.4 / 260  18.0  135  .29

           4 18  02 54.99  +29 59.7   1.752  2.677     7.1 / 259  18.0  147  .21

           5 18  02 54.45  +29 58.4   1.757  2.677     6.9 / 259  18.0  158  .14

           6 18  02 53.93  +29 57.0   1.762  2.677     6.6 / 258  18.0  168  .08

           7 18  02 53.43  +29 55.6   1.768  2.677     6.3 / 257  18.0  171  .04

           8 18  02 52.96  +29 54.2   1.773  2.677     6.0 / 256  18.0  163  .01

           9 18  02 52.52  +29 52.7   1.779  2.677     5.7 / 255  18.0  151  .00

          10 18  02 52.09  +29 51.3   1.785  2.677     5.4 / 254  18.0  140  .01

          11 18  02 51.70  +29 49.8   1.792  2.677     5.1 / 253  18.0  127  .04

          12 18  02 51.32  +29 48.3   1.798  2.677     4.7 / 251  18.1  115  .09

          13 18  02 50.98  +29 46.7   1.805  2.677     4.4 / 250  18.1  103  .15

          14 18  02 50.66  +29 45.2   1.812  2.677     4.1 / 248  18.1   90  .23

          15 18  02 50.37  +29 43.7   1.819  2.677     3.7 / 246  18.1   77  .32

NAKANO

         **** Don't distribute anyone except personal use only ****

                (C) Copyright 2007 OAA/ComputingSection

write mail from CFAD0::NAKANO on 2007-11-13 23:50:10(JST).

 



戻ります。